Waarnemingen

Advertentie
Mijn weer
Lichteiland Goeree, Nederland (6320): temperatuur & dauwpunt: 18.10.2017 07:00:00 - 24.10.2017 07:00:00 (CEST)Lichteiland Goeree, Nederland (6320): water temperatuur: 18.10.2017 07:00:00 - 24.10.2017 07:00:00 (CEST)Lichteiland Goeree, Nederland (6320): windsnelheid & windstoten: 18.10.2017 07:00:00 - 24.10.2017 07:00:00 (CEST)Lichteiland Goeree, Nederland (6320): windrichting: 18.10.2017 07:00:00 - 24.10.2017 07:00:00 (CEST)Lichteiland Goeree, Nederland (6320): luchtdruk: 18.10.2017 07:00:00 - 24.10.2017 07:00:00 (CEST)Lichteiland Goeree, Nederland (6320): zicht: 18.10.2017 07:00:00 - 24.10.2017 07:00:00 (CEST)
Datum & Tijd tt [°C] td [°C] tw [°C] ff [km/u] ff [kn] fx [km/u] fx [kn] dd ppp [hPa] vv [km]
24.10.2017 07:00:00 15,0 14,0 14,7 34 18 43 23 ZW 1017,8 10
24.10.2017 06:00:00 15,0 14,0 14,8 29 16 36 19 WZW 1018,1 10
24.10.2017 05:00:00 15,0 14,0 14,8 31 17 - - ZW 1018,1 7
24.10.2017 04:00:00 15,0 14,0 14,8 31 17 32 18 ZW 1018,0 3,9
24.10.2017 03:00:00 15,0 14,0 14,8 31 17 36 19 ZW 1018,2 3,9
24.10.2017 02:00:00 14,0 14,0 14,6 37 20 - - ZW 1018,3 4,5
24.10.2017 01:00:00 14,0 14,0 14,7 37 20 40 21 ZW 1018,4 5
24.10.2017 00:00:00 14,0 14,0 14,7 34 18 36 19 ZZW 1018,4 4,0
23.10.2017 23:00:00 14,0 13,0 14,7 35 19 - - ZZW 1018,4 4,2
23.10.2017 22:00:00 14,0 13,0 14,7 39 21 43 23 ZZW 1018,1 6
23.10.2017 21:00:00 14,0 13,0 14,7 39 21 40 21 ZW 1018,3 10
23.10.2017 20:00:00 14,0 13,0 14,7 34 18 - - ZZW 1018,4 8
23.10.2017 19:00:00 14,0 13,0 14,8 37 20 40 21 ZZW 1018,2 9
23.10.2017 18:00:00 14,0 13,0 14,8 34 18 36 19 ZW 1017,9 10
23.10.2017 17:00:00 15,0 12,0 14,9 22 12 - - WZW 1018,1 10
23.10.2017 16:00:00 15,0 11,0 14,9 26 14 29 16 WZW 1018,2 10
23.10.2017 15:00:00 15,0 11,0 14,9 26 14 29 16 W 1018,2 10
23.10.2017 14:00:00 14,0 11,0 14,8 28 15 - - W 1018,1 10
23.10.2017 13:00:00 14,0 10,0 14,8 29 16 36 19 W 1018,1 10
23.10.2017 12:00:00 13,8 8,4 14,7 37 20 43 23 W 1017,8 10
23.10.2017 11:00:00 14,0 9,0 14,7 37 20 - - W 1017,7 10
23.10.2017 10:00:00 13,0 9,0 14,7 44 24 47 25 W 1017,4 10
23.10.2017 09:00:00 13,0 8,0 14,7 42 23 47 25 W 1016,9 10
23.10.2017 08:00:00 13,0 8,0 14,5 42 23 - - WNW 1016,3 10
23.10.2017 07:00:00 13,0 7,0 14,8 50 27 54 29 WNW 1016,2 10
23.10.2017 06:00:00 12,9 6,9 14,8 48 26 54 29 WNW 1016,1 10
23.10.2017 05:00:00 13,0 7,0 14,8 52 28 - - WNW 1015,7 10
23.10.2017 04:00:00 12,6 7,0 14,9 52 28 54 29 WNW 1015,4 10
23.10.2017 03:00:00 12,6 6,5 14,9 46 25 50 27 WNW 1015,2 10
23.10.2017 02:00:00 12,8 6,7 14,9 50 27 54 29 WNW 1015,1 10
23.10.2017 01:00:00 12,8 6,8 14,9 50 27 58 31 WNW 1015,1 10
23.10.2017 00:00:00 13,0 7,1 14,8 52 28 58 31 WNW 1014,5 10
22.10.2017 23:00:00 12,9 7,2 14,8 52 28 58 31 WNW 1014,2 10
22.10.2017 22:00:00 12,8 7,2 14,8 57 31 65 35 WNW 1013,6 10
22.10.2017 21:00:00 13,1 6,6 14,8 59 32 65 35 WNW 1013,2 10
22.10.2017 20:00:00 12,6 6,8 14,8 54 29 61 33 W 1012,9 10
22.10.2017 19:00:00 12,0 7,0 14,9 57 31 61 33 WNW 1012,4 10
22.10.2017 18:00:00 11,9 7,4 15,0 55 30 61 33 WNW 1011,6 10
22.10.2017 17:00:00 12,6 7,1 15,0 59 32 61 33 W 1011,0 10
22.10.2017 16:00:00 13,0 7,0 15,1 55 30 61 33 W 1010,5 10
22.10.2017 15:00:00 12,5 7,4 15,1 54 29 61 33 W 1010,0 10
22.10.2017 14:00:00 12,2 7,3 15,1 57 31 61 33 W 1009,6 6
22.10.2017 13:00:00 12,5 7,1 15,0 55 30 58 31 W 1009,3 10
22.10.2017 12:00:00 12,6 6,7 15,0 55 30 65 35 W 1008,8 10
22.10.2017 11:00:00 12,6 7,5 14,9 54 29 58 31 W 1008,3 10
22.10.2017 10:00:00 12,6 6,7 14,9 59 32 61 33 W 1007,8 6
22.10.2017 09:00:00 13,0 7,8 14,9 61 33 65 35 W 1007,0 10
22.10.2017 08:00:00 13,5 8,3 14,9 52 28 58 31 W 1006,0 9
22.10.2017 07:00:00 13,6 8,7 15,0 55 30 61 33 W 1005,3 10
22.10.2017 06:00:00 13,6 10,1 15,0 54 29 61 33 W 1004,7 10
22.10.2017 05:00:00 14,0 11,0 15,0 57 31 - - W 1004,1 7
22.10.2017 04:00:00 14,3 10,3 15,1 57 31 65 35 W 1003,7 6
22.10.2017 03:00:00 12,2 10,8 15,1 61 33 76 41 ZW 1003,5 4,1
22.10.2017 02:00:00 12,6 9,0 15,1 72 39 79 43 ZW 1003,6 8
22.10.2017 01:00:00 12,9 8,7 15,1 72 39 79 43 ZZW 1004,0 9
22.10.2017 00:00:00 13,4 9,0 15,1 70 38 79 43 ZZW 1004,6 10
21.10.2017 23:00:00 13,6 8,8 15,1 65 35 68 37 ZZW 1005,1 10
21.10.2017 22:00:00 13,0 9,0 15,1 63 34 72 39 ZW 1005,5 10
21.10.2017 21:00:00 13,7 9,0 15,1 58 31 76 41 ZZW 1006,0 4,6
21.10.2017 20:00:00 14,2 8,7 15,1 68 37 72 39 ZW 1006,1 10
21.10.2017 19:00:00 14,5 8,7 15,2 65 35 65 35 ZW 1006,3 10
21.10.2017 18:00:00 14,3 8,9 15,3 67 36 72 39 ZW 1005,9 10
21.10.2017 17:00:00 14,0 9,4 15,3 70 38 76 41 WZW 1006,5 8
21.10.2017 16:00:00 15,4 9,8 15,5 57 31 83 45 ZW 1006,3 10
21.10.2017 15:00:00 15,8 9,9 15,4 59 32 61 33 ZW 1006,2 10
21.10.2017 14:00:00 15,1 10,8 15,4 54 29 61 33 ZW 1006,6 10
21.10.2017 13:00:00 15,7 11,0 15,4 55 30 61 33 ZW 1006,6 10
21.10.2017 12:00:00 15,3 11,3 15,3 46 25 58 31 ZW 1006,7 10
21.10.2017 11:00:00 14,8 11,6 15,3 55 30 61 33 ZW 1006,6 10
21.10.2017 10:00:00 15,0 12,5 15,3 54 29 61 33 ZZW 1006,1 10
21.10.2017 09:00:00 14,3 12,6 15,2 48 26 54 29 ZZW 1005,8 10
21.10.2017 08:00:00 14,0 12,0 15,2 50 27 - - ZZW 1005,6 10
21.10.2017 07:00:00 13,0 11,0 15,3 48 26 54 29 Z 1005,8 7
21.10.2017 06:00:00 13,0 10,0 15,4 42 23 47 25 Z 1006,4 10
21.10.2017 05:00:00 14,0 9,0 15,4 41 22 - - Z 1007,0 10
21.10.2017 04:00:00 14,0 10,0 15,5 41 22 43 23 Z 1007,8 10
21.10.2017 03:00:00 14,0 9,0 15,4 39 21 43 23 Z 1008,7 10
21.10.2017 02:00:00 14,0 9,0 15,4 35 19 - - Z 1009,3 10
21.10.2017 01:00:00 15,0 10,0 15,4 37 20 47 25 ZZW 1009,9 10
21.10.2017 00:00:00 15,0 10,0 15,4 44 24 47 25 ZW 1009,9 10
20.10.2017 23:00:00 14,0 10,0 15,4 39 21 - - ZW 1010,2 10
20.10.2017 22:00:00 15,0 8,0 15,4 48 26 58 31 W 1010,2 10
20.10.2017 21:00:00 14,4 8,2 15,3 57 31 61 33 W 1010,0 10
20.10.2017 20:00:00 14,8 8,9 15,4 61 33 61 33 WZW 1009,4 10
20.10.2017 19:00:00 14,8 9,9 15,4 57 31 61 33 WZW 1008,7 10
20.10.2017 18:00:00 14,8 10,4 15,5 63 34 65 35 WZW 1007,7 10
20.10.2017 17:00:00 14,8 10,6 15,5 63 34 68 37 WZW 1007,0 10
20.10.2017 16:00:00 14,7 10,4 15,5 65 35 68 37 WZW 1006,2 10
20.10.2017 15:00:00 14,6 10,5 15,5 65 35 68 37 WZW 1005,6 10
20.10.2017 14:00:00 14,9 11,0 15,5 61 33 72 39 WZW 1004,9 10
20.10.2017 13:00:00 14,9 10,9 15,5 65 35 72 39 WZW 1004,1 4,9
20.10.2017 12:00:00 13,2 11,5 15,5 68 37 79 43 ZZW 1003,4 3,9
20.10.2017 11:00:00 13,5 10,6 15,5 67 36 76 41 ZZW 1003,1 9
20.10.2017 10:00:00 13,9 10,2 15,5 63 34 65 35 ZZW 1003,0 10
20.10.2017 09:00:00 14,3 10,5 15,6 63 34 65 35 ZZW 1002,8 10
20.10.2017 08:00:00 14,6 11,2 15,6 55 30 61 33 ZW 1002,4 10
20.10.2017 07:00:00 14,8 12,3 15,6 50 27 54 29 ZW 1001,9 10
20.10.2017 06:00:00 14,4 12,8 15,6 55 30 61 33 ZZW 1002,5 10
20.10.2017 05:00:00 15,7 12,9 15,6 48 26 65 35 Z 1002,9 10
20.10.2017 04:00:00 16,9 12,9 15,6 50 27 54 29 Z 1003,2 10
20.10.2017 03:00:00 17,2 13,3 15,6 46 25 47 25 Z 1003,3 10
20.10.2017 02:00:00 17,1 13,9 15,6 39 21 43 23 Z 1004,1 10
20.10.2017 01:00:00 17,7 13,9 15,6 41 22 43 23 Z 1004,3 10
20.10.2017 00:00:00 17,4 13,8 15,6 34 18 40 21 Z 1004,5 10
19.10.2017 23:00:00 17,6 13,8 15,6 37 20 36 19 Z 1004,7 10
19.10.2017 22:00:00 17,5 14,0 15,6 31 17 32 18 ZZO 1004,8 10
19.10.2017 21:00:00 17,9 13,8 15,6 34 18 32 18 Z 1005,4 10
19.10.2017 20:00:00 18,2 13,9 15,6 34 18 32 18 Z 1005,6 10
19.10.2017 19:00:00 17,9 14,2 15,6 29 16 32 18 Z 1005,9 10
19.10.2017 18:00:00 18,6 14,1 15,6 31 17 32 18 Z 1005,6 10
19.10.2017 17:00:00 18,4 14,1 15,6 29 16 32 18 ZZO 1005,7 10
19.10.2017 16:00:00 18,1 13,7 15,6 37 20 32 18 ZZO 1006,2 10
19.10.2017 15:00:00 17,6 13,5 15,6 31 17 32 18 ZO 1006,7 10
19.10.2017 14:00:00 17,1 13,4 15,4 34 18 36 19 ZZO 1007,5 10
19.10.2017 13:00:00 16,5 13,2 15,5 31 17 32 18 ZO 1008,0 10
19.10.2017 12:00:00 16,1 12,7 15,5 34 18 32 18 ZZO 1008,6 10
19.10.2017 11:00:00 15,8 12,5 15,5 29 16 29 16 ZO 1008,8 10
19.10.2017 10:00:00 15,3 12,8 15,6 26 14 32 18 ZZO 1009,7 10
19.10.2017 09:00:00 15,3 13,1 15,6 28 15 29 16 ZZO 1009,0 10
19.10.2017 08:00:00 15,3 13,1 15,5 22 12 22 12 ZZO 1008,8 8
19.10.2017 07:00:00 15,3 13,3 15,5 18 10 18 10 ZZO 1009,3 8
19.10.2017 06:00:00 15,4 13,7 15,6 16 9 18 10 ZZO 1009,8 7
19.10.2017 05:00:00 15,7 13,8 15,5 15 8 18 10 Z 1010,1 8
19.10.2017 04:00:00 15,8 14,0 15,6 18 10 18 10 Z 1010,4 8
19.10.2017 03:00:00 16,0 14,3 15,6 16 9 18 10 Z 1010,8 7
19.10.2017 02:00:00 16,4 14,4 15,5 18 10 22 12 Z 1010,7 8
19.10.2017 01:00:00 16,5 14,5 15,5 16 9 18 10 Z 1010,9 7
19.10.2017 00:00:00 16,2 14,5 15,5 16 9 18 10 ZZW 1011,1 5
18.10.2017 23:00:00 16,2 14,5 15,6 16 9 18 10 Z 1011,3 5
18.10.2017 22:00:00 16,3 14,2 15,6 18 10 22 12 ZZO 1011,3 6
18.10.2017 21:00:00 16,4 14,0 15,6 24 13 22 12 ZO 1011,3 6
18.10.2017 20:00:00 16,3 13,8 15,6 24 13 22 12 ZO 1011,4 6
18.10.2017 19:00:00 16,2 13,7 15,6 21 11 22 12 ZO 1011,4 5
18.10.2017 18:00:00 15,6 13,8 15,6 18 10 18 10 OZO 1011,2 4,5
18.10.2017 17:00:00 16,0 13,8 15,6 15 8 18 10 ZO 1011,2 4,5
18.10.2017 16:00:00 16,0 13,7 15,6 18 10 18 10 ZO 1011,3 6
18.10.2017 15:00:00 15,1 13,1 15,6 13 7 14 8 OZO 1011,3 6
18.10.2017 14:00:00 14,6 12,6 15,6 13 7 14 8 O 1011,9 6
18.10.2017 13:00:00 14,4 12,5 15,5 9 5 14 8 O 1012,6 6
18.10.2017 12:00:00 14,1 12,2 15,5 13 7 22 12 OZO 1012,7 6
18.10.2017 11:00:00 13,7 11,7 15,5 22 12 25 14 O 1012,6 8
18.10.2017 10:00:00 13,8 11,1 15,5 24 13 25 14 O 1012,9 10
18.10.2017 09:00:00 14,1 10,8 15,5 22 12 29 16 O 1013,1 10
18.10.2017 08:00:00 14,2 11,1 15,6 24 13 25 14 O 1013,1 10
18.10.2017 07:00:00 14,5 11,1 15,6 24 13 25 14 O 1013,4 10

tt = temperatuur
td = dauwpunt
tw = water temperatuur
ff = windsnelheid
fx = windstoten
dd = windrichting
ppp = luchtdruk
vv = zicht

Weerstations in de omgeving